Carbondale, IL

5:55 AM CDT on June 28, 2017 (GMT -0500)
Southern Illinois

Weather History for KMDH - October, 2012

Change the Weather History Date:

Tuesday, October 9, 2012

  Actual Average Record
Temperature  
Mean Temperature 50 °F -  
Max Temperature 64 °F 71 °F 92 °F (1928)
Min Temperature 36 °F 45 °F 24 °F (1917)
Degree Days  
Heating Degree Days 15    
Moisture  
Dew Point 41 °F    
Average Humidity 70    
Maximum Humidity 93    
Minimum Humidity 45    
Precipitation  
Precipitation 0.00 in - - ()
Sea Level Pressure  
Sea Level Pressure 30.05 in    
Wind  
Wind Speed 6 mph (South)    
Max Wind Speed 17 mph    
Max Gust Speed 23 mph    
Visibility 10 miles    
Events      
Averages and records for this station are not official NWS values.
T = Trace of Precipitation, MM = Missing Value Source: NWS Daily Summary

Daily Weather History Graph

Daily Weather History Graph

Search for Another Location

Airport or City:

Trip Planner

Search our weather history database for the weather conditions in past years. The results will help you decide how hot, cold, wet, or windy it might be!

Date:

Astronomy

Oct. 09, 2012 Rise Set
Actual Time 7:00 AM CDT 6:27 PM CDT
Civil Twilight 6:33 AM CDT 6:53 PM CDT
Nautical Twilight 6:03 AM CDT 7:23 PM CDT
Astronomical Twilight 5:33 AM CDT 7:54 PM CDT
Moon 12:43 AM CDT (10/9) 2:49 PM CDT (10/9)
Length of Visible Light 12h 19m
Length of Day
11h 27m
Last Quarter, 36% of the Moon is Illuminated
Oct 9
Last Quarter
Oct 15
New
Oct 21
First Quarter
Oct 29
Full
Nov 6
Last Quarter

Hourly Weather History & Observations

Time (CDT) Temp. Windchill Dew Point Humidity Pressure Visibility Wind Dir Wind Speed Gust Speed Precip Events Conditions
12:52 AM 39.0 °F 36.8 °F 36.0 °F 89% 30.12 in 10.0 mi South 3.5 mph - N/A   Clear
2:52 AM 39.0 °F - 36.0 °F 89% 30.13 in 10.0 mi Calm Calm - N/A   Clear
3:52 AM 37.0 °F 34.5 °F 34.0 °F 89% 30.11 in 10.0 mi SSE 3.5 mph - N/A   Clear
4:52 AM 37.0 °F - 35.1 °F 93% 30.12 in 10.0 mi Calm Calm - N/A   Clear
6:52 AM 36.0 °F - 34.0 °F 93% 30.13 in 10.0 mi Calm Calm - N/A   Clear
7:52 AM 39.9 °F 37.8 °F 37.9 °F 93% 30.13 in 10.0 mi SSE 3.5 mph - N/A   Clear
8:52 AM 48.9 °F - 43.0 °F 80% 30.14 in 10.0 mi South 8.1 mph - N/A   Clear
9:52 AM 55.9 °F - 43.0 °F 62% 30.13 in 10.0 mi SSW 10.4 mph - N/A   Clear
10:52 AM 59.0 °F - 42.1 °F 53% 30.12 in 10.0 mi SW 16.1 mph - N/A   Clear
11:52 AM 61.0 °F - 43.0 °F 52% 30.09 in 10.0 mi SSW 16.1 mph - N/A   Clear
12:52 PM 62.1 °F - 42.1 °F 48% 30.06 in 10.0 mi South 17.3 mph 23.0 mph N/A   Clear
1:52 PM 63.0 °F - 41.0 °F 45% 30.03 in 10.0 mi South 17.3 mph 23.0 mph N/A   Clear
2:52 PM 64.0 °F - 42.1 °F 45% 30.00 in 10.0 mi SSW 16.1 mph 21.9 mph N/A   Clear
3:52 PM 64.0 °F - 42.1 °F 45% 29.98 in 10.0 mi South 13.8 mph - N/A   Clear
4:52 PM 64.0 °F - 42.1 °F 45% 29.97 in 10.0 mi South 12.7 mph 18.4 mph N/A   Clear
5:52 PM 61.0 °F - 42.1 °F 50% 29.97 in 10.0 mi SSW 11.5 mph - N/A   Clear
6:52 PM 53.1 °F - 42.1 °F 66% 29.98 in 10.0 mi South 5.8 mph - N/A   Clear
7:52 PM 48.9 °F - 43.0 °F 80% 29.99 in 10.0 mi SSE 3.5 mph - N/A   Clear
8:52 PM 48.0 °F - 42.1 °F 80% 29.99 in 10.0 mi SSE 3.5 mph - N/A   Clear
9:52 PM 48.0 °F - 43.0 °F 83% 29.99 in 10.0 mi SSE 3.5 mph - N/A   Mostly Cloudy
10:52 PM 48.9 °F - 45.0 °F 86% 30.00 in 10.0 mi SW 3.5 mph - N/A   Mostly Cloudy
11:52 PM 51.1 °F - 46.0 °F 83% 30.00 in 10.0 mi Calm Calm - N/A   Overcast